DECAYED

STARLINK-1107, 44972 (Decayed)

Orbit data source: Space-Track

STARLINK-1107, 44972 was a payload satellite owned by SpaceX/Seattle (US) in LEO that was launched on Tue, 07 Jan 2020 UTC via an FALCON 9 launch vehicle from the Air Force Eastern Test Range (AFETR). Payload-class satellites include a variety of spacecraft equipped with specific instruments for various scientific and technological missions. These include communications satellites like Starlink; space stations such as the ISS; scientific satellites like the Hubble; Earth observation satellites from companies like Planet Labs, Umbra, and HawkEye 360; GPS; miniature CubeSats for education and research; and military/defense satellites.

Not visible in the next 10 days
Identifier
44972, 2020-001BL
Orbit
Decayed
Country
Flag of USUS
Related business
Manufacturer
SpaceX/Seattle
Mission
Decayed Commercial Communications
Bus & Motor
STARLINK, Unknown motor
Mass
260 kg wet, ~248 kg dry
Launch date (UTC)
2020-01-07 (6 years ago)
Launch vehicle
FALCON 9
Launch site
Air Force Eastern Test Range (AFETR)
Object type
Payload
Rocket body
Debris
Shape & HBR
Box + 1 Pan, 10.1 m
Radar Cross Section
13.562 m², Large (>1 m²)

Expand to show TLE details & history
Last TLE update: 2 months ago

TLE from 2 months ago
0 STARLINK-1107
1 44972U 20001BL  25347.06891696  .13683697  12322-4  99762-3 0  9998
2 44972  52.9850 225.8399 0004322 234.0186 126.0459 16.39986135328887
Epoch: 2025-12-13T01:39Z
TLE epoch observation values (Epoch: 2025-12-13T01:39:14.425Z)
Latitude
-0.00004°
Longitude
119.02828°
Altitude
168.427 km
Speed
7.805 km/s
True Right ascension
15h 03m 21s
True Declination
0° 00' 00"
Sunlit
Object was in daylight at epoch
Visualization orbit readout
Latitude
Unknown
Longitude
Unknown
Altitude
Unknown
Speed
Unknown
Apparent Right ascension
Unknown
Apparent Declination
Unknown
Sunlit
N/A
Visualization observer readout
Local Sidereal Time
01:16:18
Azimuth
Unknown
Elevation
Unknown
Doppler factor
Unknown
Orbital elements
Apogee altitude
168.966 km
Perigee altitude
163.309 km
Semi-major axis
6,544.274 km
Eccentricity
0.00043
Inclination
52.985°
RAAN
225.8399°
Arg. of periapsis
234.0186°
True anomaly
126.08593°
Mean anomaly
126.0459°
Eccentric anomaly
126.06592°
Mean motion
4.09969 °/min
Orbital period
87.81 mins
BSTAR
0.00099762
Loading maneuver chart data...
Computing Atmospheric mass density...

Documentation

Showing up to 5 results
|